325  
ASUS41 KCLE 210312  
RWRCLE  
OHIO REGIONAL WEATHER ROUNDUP  
NATIONAL WEATHER SERVICE WILMINGTON, OH  
1000 PM EST THU FEB 20 2020  
 
NOTE: "FAIR" INDICATES FEW OR NO CLOUDS BELOW 12,000 FEET WITH NO  
SIGNIFICANT WEATHER AND/OR S TO VISIBILITY
.  
 
OHZ001>008-015>018-024>027-034-035-043-044-210400-  
NORTHWEST OHIO  
 
CITY SKY/WX TMP DP RH WIND PRES REMARKS
 
DEFIANCE FAIR 21 9 59 NW8 30.62R WCI 11  
FINDLAY FAIR 22 9 57 N5 30.59R WCI 16  
TOLEDO EXPRESS FAIR 19 7 59 CALM 30.60S  
TOLEDO EXEC FAIR 21 7 54 N5 30.61S WCI 15  
LIMA FAIR 21 11 65 N5 30.59R WCI 15  

 
 
OHZ009>014-019>023-028>033-038-089-210400-  
NORTHEAST OHIO  
 
CITY SKY/WX TMP DP RH WIND PRES REMARKS
 
CLE-HOPKINS FAIR 18 9 68 W6 30.60R WCI 10  
CLE-LAKEFRONT MOCLDY 24 7 48 NW13 30.58R WCI 12  
CUY CO. ARPT MOCLDY 21 9 58 N6 30.55S WCI 14  
LORAIN-ELYRIA FAIR 17 9 70 SW3 30.58S  
ASHTABULA CLOUDY 20 7 57 NW8 30.56R WCI 10  
AKRON-CANTON FAIR 17 7 64 CALM 30.54R  
WOOSTER FAIR 15 10 80 CALM 30.56R  
MANSFIELD FAIR 16 11 80 CALM 30.54S  
YOUNGSTOWN FLURRIES 20 7 57 NW8 30.52S WCI 10  

 
 
OHZ042-051>053-060>062-070>072-077>081-210400-  
SOUTHWEST OHIO  
 
CITY SKY/WX TMP DP RH WIND PRES REMARKS
 
CINC-COVINGTON FAIR 22 10 60 N8 30.59R WCI 12  
CINC-LUNKEN FAIR 24 10 55 N8 30.63R WCI 15  
HAMILTON FAIR 17 11 77 NW3 30.63R  
DAYTON FAIR 21 9 59 N6 30.59R WCI 13  
WRIGHT-PAT AFB FAIR 21 8 57 N6 30.59S WCI 14  
DAYTON GENERAL FAIR 21 10 62 N5 30.58R WCI 15  
WILMINGTON FAIR 21 11 65 N8 30.57R WCI 11  

 
 
OHZ036-037-039>041-045>050-054>059-063>069-073>076-082>088-210400-  
CENTRAL AND SOUTHEAST OHIO  
 
CITY SKY/WX TMP DP RH WIND PRES REMARKS
 
COLUMBUS FAIR 19 7 59 VRB5 30.59R WCI 12  
OSU AIRPORT FAIR 18 8 65 N6 30.58R WCI 10  
BOLTON FIELD FAIR 19 10 69 N6 30.59R WCI 11  
RICKENBACK AFB FAIR 20 7 58 N7 30.59R WCI 11  
NEWARK FAIR 21 9 59 N5 30.57R WCI 15  
MARION FAIR 18 10 71 CALM 30.58R  
LANCASTER FAIR 20 11 68 N5 30.58R WCI 13  
ZANESVILLE FAIR 20 8 60 N7 30.57R WCI 11  
NEW PHILLY FAIR 19 8 62 NW6 30.58R WCI 11  

 
 
 
CLICK HERE TO GO TO PREVIOUS BULLETINS.

The Nexlab OH Page
The Nexlab PA Page Main Text Page